星链-2163 (STARLINK-2163 )

导读

STARLINK-2163是美国SpaceX公司制造、运营的星链商业通信卫星,编号47749,于2021年3月4日UTC时间由猎鹰9号火箭,从空军东部试验靶场发射升空。卫星湿重260千克,运行在近地轨道,轨道倾角53.055度,近地点高度约546.6千米,远地点约548.4千米,绕行周期约95.6分钟,承担商业通信服务任务。

基本信息
目录编号:
47749
目录名称:
STARLINK-2163
国际标识:
2021-017AD
轨道中心:
EARTH
卫星名称:
星链-2163
卫星全名:
星链-2163 (STARLINK-2163 )
卫星状态:
在轨 (已飞行1932 天)
发射日期:
2021-03-04 UTC
国别 :
美国 (US)
星等 :
--
轨道信息
数据来源 国际轨道数据
星历时间: 2026-06-18T16:00:02+0800
9小时前
查看轨道信息
半长轴: 6706.766km
偏心率: 0.0002837
轨道倾角: 53.152°
近地点辐角 237.085°
升交点赤经 68.714°
平近点角 301.465°
近地点: 326.726km
远地点: 330.532km
周期: 91.102分钟
每日圈数: 15.806405
详细信息
固有亮度:
5
最大亮度:
2.5
卫星平台:
Starlink V1.0
覆盖范围:
全球
运营商:
太空探索技术公司
运营商所在国:
美国
制造商(研发单位):
太空探索技术公司
制造商所在国:
美国
使用方式:
暂无
卫星简介
星链(Starlink)计划是由太空探索技术公司(SpaceX)提出的一个巨型低轨卫星互联网星座项目,计划在2019年至2024年间在太空搭建由约1.2万颗卫星组成的“星链”网络,其中1584颗将部署在地球上空550千米处的近地轨道,并从2020年开始工作。该卫星仍在工作。
2D轨道图
3D轨道图
轨道高度分析图
轨道倾角分析图
轨道综合分析图
查看轨道综合分析图